Location: Burla
(50.9568°N, 10.4983°E)
Time: 08:06:51
(UTC+00:00)

Okean 1-7 - Pass Details

Date: 18 January 2026
Orbit: 566 x 588 km, 82.5° (Epoch: 16 February)

Event Time Altitude Azimuth Distance (km) Brightness Sun altitude
Exits shadow 06:27:52 - 334° (NNW) 2,570 5.8 -6.9°
Reaches altitude 10° 06:29:57 10° 319° (NW) 1,886 5.0 -6.6°
Maximum altitude 06:32:52 19° 274° (W) 1,402 4.3 -6.2°
Drops below altitude 10° 06:35:47 10° 229° (SW) 1,883 5.3 -5.8°
Sets 06:38:28 0° 212° (SSW) 2,780 6.4 -5.4°
